| time (UTC) | temp F | wind direction | speed MPH | gust MPH | rain 1hr in | rain 24hr in | rain mn in | humidity % | barometer mb |
| 20260502223018 | 73 | 360 | 3.0 | 8.0 | 0.00 | 0.00 | 0.00 | 53 | 1015.0 |
| 20260502221518 | 73 | 257 | 3.0 | 8.0 | 0.00 | 0.00 | 0.00 | 49 | 1015.2 |
| 20260502220016 | 73 | 40 | 1.0 | 4.0 | 0.00 | 0.00 | 0.00 | 54 | 1015.4 |
| 20260502214531 | 72 | 42 | 1.0 | 5.0 | 0.00 | 0.00 | 0.00 | 57 | 1015.5 |
| 20260502213012 | 71 | 38 | 2.0 | 5.0 | 0.00 | 0.00 | 0.00 | 55 | 1015.6 |
| 20260502211517 | 71 | 239 | 2.0 | 4.0 | 0.00 | 0.00 | 0.00 | 54 | 1015.7 |
| 20260502210021 | 72 | 24 | 2.0 | 4.0 | 0.00 | 0.00 | 0.00 | 52 | 1016.0 |
| 20260502204512 | 70 | 360 | 1.0 | 9.0 | 0.00 | 0.00 | 0.00 | 57 | 1016.0 |
| 20260502203012 | 69 | 325 | 3.0 | 9.0 | 0.00 | 0.00 | 0.00 | 59 | 1016.2 |
| 20260502201508 | 70 | 355 | 2.0 | 6.0 | 0.00 | 0.00 | 0.00 | 63 | 1016.2 |
| 20260502200006 | 69 | 192 | 1.0 | 6.0 | 0.00 | 0.00 | 0.00 | 66 | 1016.3 |
| 20260502194504 | 68 | 275 | 1.0 | 8.0 | 0.00 | 0.00 | 0.00 | 65 | 1016.4 |
| 20260502193003 | 69 | 342 | 1.0 | 6.0 | 0.00 | 0.00 | 0.00 | 68 | 1016.5 |
| 20260502191505 | 68 | 200 | 3.0 | 6.0 | 0.00 | 0.00 | 0.00 | 69 | 1016.4 |
| 20260502190100 | 71 | 182 | 1.0 | 6.0 | 0.00 | 0.00 | 0.00 | 63 | 1016.5 |
| 20260502184604 | 71 | 11 | 4.0 | 11.0 | 0.00 | 0.00 | 0.00 | 52 | 1016.4 |
| 20260502183055 | 70 | 43 | 2.0 | 9.0 | 0.00 | 0.00 | 0.00 | 54 | 1016.5 |
| 20260502181553 | 69 | 18 | 4.0 | 9.0 | 0.00 | 0.00 | 0.00 | 57 | 1016.6 |
| 20260502180104 | 69 | 28 | 2.0 | 8.0 | 0.00 | 0.00 | 0.00 | 58 | 1016.8 |
| 20260502163031 | 61 | 331 | 6.0 | 9.0 | 0.00 | 0.00 | 0.00 | 78 | 1017.1 |
| 20260502161525 | 60 | 16 | 2.0 | 9.0 | 0.00 | 0.00 | 0.00 | 81 | 1017.2 |
| 20260502151512 | 55 | 24 | 0.0 | 4.0 | 0.00 | 0.00 | 0.00 | 89 | 1017.6 |
| 20260502123051 | 52 | 159 | 0.0 | 1.0 | 0.00 | 0.00 | 0.00 | 92 | 1016.3 |
| 20260502121552 | 52 | 159 | 0.0 | 1.0 | 0.00 | 0.00 | 0.00 | 91 | 1016.3 |
| 20260502114547 | 53 | 192 | 0.0 | 3.0 | 0.00 | 0.00 | 0.00 | 91 | 1016.1 |
| 20260502113045 | 52 | 148 | 0.0 | 3.0 | 0.00 | 0.00 | 0.00 | 90 | 1016.1 |
| 20260502111558 | 53 | 153 | 0.0 | 3.0 | 0.00 | 0.00 | 0.00 | 90 | 1015.9 |
| 20260502110043 | 53 | 153 | 0.0 | 1.0 | 0.00 | 0.00 | 0.00 | 88 | 1015.9 |
| 20260502104541 | 53 | 153 | 0.0 | 1.0 | 0.00 | 0.00 | 0.00 | 87 | 1015.8 |
| 20260502103057 | 54 | 153 | 0.0 | 0.0 | 0.00 | 0.00 | 0.00 | 86 | 1015.9 |
| 20260502101538 | 54 | 153 | 0.0 | 2.0 | 0.00 | 0.00 | 0.00 | 86 | 1015.8 |
| 20260502071529 | 54 | 144 | 0.0 | 2.0 | 0.00 | 0.00 | 0.00 | 86 | 1015.7 |
| 20260502070026 | 54 | 165 | 0.0 | 0.0 | 0.00 | 0.00 | 0.00 | 86 | 1015.6 |
| 20260502064526 | 54 | 165 | 0.0 | 0.0 | 0.00 | 0.00 | 0.00 | 85 | 1015.6 |
| 20260502063029 | 54 | 165 | 0.0 | 0.0 | 0.00 | 0.00 | 0.00 | 85 | 1015.5 |
| 20260502061524 | 54 | 165 | 0.0 | 0.0 | 0.00 | 0.00 | 0.00 | 83 | 1015.6 |
| 20260502060024 | 54 | 165 | 0.0 | 0.0 | 0.00 | 0.00 | 0.00 | 84 | 1015.4 |
| 20260502054532 | 54 | 165 | 0.0 | 0.0 | 0.00 | 0.00 | 0.00 | 85 | 1015.3 |
| 20260502053023 | 54 | 165 | 0.0 | 0.0 | 0.00 | 0.00 | 0.00 | 85 | 1015.5 |
| 20260502051522 | 54 | 183 | 0.0 | 0.0 | 0.00 | 0.00 | 0.00 | 86 | 1015.6 |
| 20260502050026 | 55 | 183 | 0.0 | 2.0 | 0.00 | 0.00 | 0.00 | 87 | 1015.7 |
| 20260502044522 | 55 | 183 | 0.0 | 2.0 | 0.00 | 0.00 | 0.00 | 87 | 1015.6 |
| 20260502043021 | 55 | 184 | 0.0 | 0.0 | 0.00 | 0.00 | 0.00 | 87 | 1015.2 |
| 20260502041521 | 55 | 184 | 0.0 | 0.0 | 0.00 | 0.00 | 0.00 | 85 | 1015.1 |
| 20260502040020 | 56 | 184 | 0.0 | 2.0 | 0.00 | 0.00 | 0.00 | 85 | 1015.0 |
| 20260502034519 | 56 | 184 | 0.0 | 1.0 | 0.00 | 0.00 | 0.00 | 84 | 1014.8 |
| 20260502033018 | 57 | 178 | 0.0 | 2.0 | 0.00 | 0.00 | 0.00 | 82 | 1014.8 |
| 20260502031521 | 58 | 178 | 0.0 | 1.0 | 0.00 | 0.00 | 0.00 | 80 | 1014.5 |
| 20260502030018 | 59 | 178 | 0.0 | 0.0 | 0.00 | 0.00 | 0.00 | 78 | 1014.5 |
| 20260502024517 | 59 | 178 | 0.0 | 2.0 | 0.00 | 0.00 | 0.00 | 76 | 1014.4 |
| 20260502023017 | 60 | 178 | 0.0 | 4.0 | 0.00 | 0.00 | 0.00 | 73 | 1014.4 |
| 20260502021517 | 61 | 185 | 1.0 | 4.0 | 0.00 | 0.00 | 0.00 | 71 | 1014.4 |
| 20260502020016 | 63 | 182 | 1.0 | 4.0 | 0.00 | 0.00 | 0.00 | 66 | 1014.3 |
| 20260502014525 | 63 | 200 | 0.0 | 2.0 | 0.00 | 0.00 | 0.00 | 62 | 1014.4 |
| 20260502013014 | 64 | 288 | 0.0 | 4.0 | 0.00 | 0.00 | 0.00 | 61 | 1014.4 |
| 20260502011513 | 64 | 316 | 0.0 | 4.0 | 0.00 | 0.00 | 0.00 | 59 | 1014.5 |
| 20260502010013 | 65 | 344 | 1.0 | 4.0 | 0.00 | 0.00 | 0.00 | 58 | 1014.5 |
| 20260502004527 | 66 | 341 | 1.0 | 5.0 | 0.00 | 0.00 | 0.00 | 58 | 1014.5 |
| 20260502003010 | 67 | 146 | 1.0 | 6.0 | 0.00 | 0.00 | 0.00 | 60 | 1014.6 |
| 20260502001510 | 67 | 350 | 1.0 | 4.0 | 0.00 | 0.00 | 0.00 | 60 | 1014.6 |
| 20260502000010 | 68 | 355 | 1.0 | 6.0 | 0.00 | 0.00 | 0.00 | 58 | 1014.7 |
| 20260501234508 | 69 | 30 | 1.0 | 6.0 | 0.00 | 0.00 | 0.00 | 56 | 1014.7 |
| 20260501233006 | 70 | 149 | 0.0 | 3.0 | 0.00 | 0.00 | 0.00 | 58 | 1014.8 |
| 20260501231505 | 70 | 72 | 0.0 | 6.0 | 0.00 | 0.00 | 0.00 | 57 | 1014.9 |
| 20260501230004 | 70 | 136 | 0.0 | 4.0 | 0.00 | 0.00 | 0.00 | 58 | 1015.0 |
| 20260501224504 | 71 | 350 | 0.0 | 3.0 | 0.00 | 0.00 | 0.00 | 58 | 1015.0 |